Location: Spring Creek
(38.2870°N, 100.2160°W)
Time: 23:57:37
(UTC+00:00)

Meteor 1-24 Rocket - Pass Details

Date: 08 May 2021
Orbit: 790 x 927 km, 81.2° (Epoch: 21 June)

Event Time Altitude Azimuth Distance (km) Brightness Sun altitude
Exits shadow 10:37:56 - 202° (SSW) 2,740 5.9 -10.9°
Reaches altitude 10° 10:38:33 10° 203° (SSW) 2,512 5.7 -10.8°
Maximum altitude 10:44:08 56° 281° (WNW) 1,003 3.9 -9.9°
Drops below altitude 10° 10:49:34 10° 360° (N) 2,438 6.5 -9.0°
Sets 10:51:59 0° 5° (N) 3,356 7.3 -8.6°
